Location: Eurasberg
(48.3353°N, 11.0839°E)
Time: 05:52:50
(UTC+00:00)

ATLAS 2AS CENTAUR R/B - Pass Details

Date: 18 January 2026
Orbit: 1050 x 1161 km, 63.7° (Epoch: 10 February)

Event Time Altitude Azimuth Distance (km) Brightness Sun altitude
Exits shadow 05:04:09 24° 313° (NW) 2,038 3.7 -18.7°
Maximum altitude 05:08:27 70° 235° (SW) 1,112 2.6 -18.0°
Drops below altitude 10° 05:15:10 10° 153° (SSE) 2,867 5.5 -16.9°
Sets 05:17:48 0° 151° (SSE) 3,826 6.2 -16.5°
